When you browse on this site, cookies collect data to enhance your experience and personalize the content and advertising you see.
Visit our Privacy Policy to learn more. By continuing to use the site, you agree to this use of cookies and data.
  • In Lithuania
  • List of Countries
  • For 7 days
  • Water Temperature
  • Weather Map
  • Weather Widgets
  • user-avatar
    Login

    Hourly Weather Bolshie Klochki

    Today, 21 August, Wednesday

    Time Temperature Precipitation Wind Pressure Humidity
    00:00 +16°C° 0 mm 1 mps 746 mmHg 97%
    01:00 +15°C° 0 mm 1 mps 746 mmHg 97%
    02:00 +15°C° 0 mm 1 mps 747 mmHg 98%
    03:00 +15°C° 0 mm 1 mps 747 mmHg 97%
    04:00 +14°C° 0 mm 1 mps 747 mmHg 96%
    05:00 +14°C° 0 mm 1 mps 747 mmHg 94%
    06:00 +15°C° 0 mm 1 mps 747 mmHg 92%
    07:00 +18°C° 0 mm 1 mps 747 mmHg 89%
    08:00 +19°C° 0 mm 1 mps 747 mmHg 86%
    09:00 +20°C° 0 mm 1 mps 747 mmHg 81%
    10:00 +22°C° 0 mm 1 mps 747 mmHg 75%
    11:00 +23°C° 0 mm 2 mps 747 mmHg 70%
    12:00 +23°C° 0 mm 2 mps 746 mmHg 70%
    13:00 +24°C° 0 mm 2 mps 746 mmHg 70%
    14:00 +24°C° 0 mm 2 mps 745 mmHg 71%
    15:00 +24°C° 0 mm 3 mps 745 mmHg 74%
    16:00 +24°C° 0 mm 3 mps 744 mmHg 77%
    17:00 +24°C° 0 mm 3 mps 744 mmHg 81%
    18:00 +22°C° 1.1 mm 3 mps 743 mmHg 86%
    19:00 +21°C° 1.1 mm 3 mps 743 mmHg 91%
    20:00 +20°C° 1.1 mm 2 mps 742 mmHg 95%
    21:00 +20°C° 0.6 mm 3 mps 742 mmHg 95%
    22:00 +20°C° 0.6 mm 3 mps 742 mmHg 96%
    23:00 +20°C° 0.6 mm 3 mps 742 mmHg 96%

    Tomorrow, 22 August, Thursday

    Time Temperature Precipitation Wind Pressure Humidity
    00:00 +20°C° 1.1 mm 3 mps 742 mmHg 96%
    01:00 +19°C° 1.1 mm 3 mps 742 mmHg 97%
    02:00 +19°C° 1.1 mm 3 mps 743 mmHg 97%
    03:00 +18°C° 1 mm 3 mps 743 mmHg 97%
    04:00 +16°C° 1 mm 3 mps 743 mmHg 97%
    05:00 +14°C° 1 mm 3 mps 743 mmHg 97%
    06:00 +14°C° 0 mm 3 mps 744 mmHg 95%
    07:00 +14°C° 0 mm 4 mps 744 mmHg 93%
    08:00 +14°C° 0 mm 4 mps 745 mmHg 91%
    09:00 +15°C° 0 mm 4 mps 745 mmHg 83%
    10:00 +18°C° 0 mm 4 mps 746 mmHg 75%
    11:00 +19°C° 0 mm 4 mps 746 mmHg 67%
    12:00 +20°C° 0 mm 4 mps 746 mmHg 64%
    13:00 +20°C° 0 mm 3 mps 746 mmHg 61%
    14:00 +21°C° 0 mm 3 mps 747 mmHg 57%
    15:00 +21°C° 0 mm 3 mps 747 mmHg 60%
    16:00 +20°C° 0 mm 2 mps 747 mmHg 63%
    17:00 +20°C° 0 mm 2 mps 747 mmHg 66%
    18:00 +18°C° 0 mm 2 mps 747 mmHg 71%
    19:00 +16°C° 0 mm 2 mps 747 mmHg 77%
    20:00 +14°C° 0 mm 1 mps 747 mmHg 83%
    21:00 +13°C° 0 mm 1 mps 747 mmHg 85%
    22:00 +13°C° 0 mm 1 mps 748 mmHg 87%
    23:00 +12°C° 0 mm 1 mps 748 mmHg 90%

    Day after tomorrow, 23 August, Friday

    Time Temperature Precipitation Wind Pressure Humidity
    00:00 +12°C° 0 mm 1 mps 748 mmHg 90%
    01:00 +12°C° 0 mm 1 mps 748 mmHg 91%
    02:00 +12°C° 0 mm 1 mps 748 mmHg 92%
    03:00 +11°C° 0 mm 1 mps 748 mmHg 93%
    04:00 +11°C° 0 mm 1 mps 748 mmHg 94%
    05:00 +11°C° 0 mm 1 mps 748 mmHg 96%
    06:00 +13°C° 0 mm 1 mps 749 mmHg 89%
    07:00 +15°C° 0 mm 1 mps 749 mmHg 82%
    08:00 +18°C° 0 mm 1 mps 749 mmHg 75%
    09:00 +18°C° 0 mm 2 mps 749 mmHg 68%
    10:00 +19°C° 0 mm 2 mps 749 mmHg 62%
    11:00 +20°C° 0 mm 3 mps 749 mmHg 55%
    12:00 +21°C° 0 mm 2 mps 749 mmHg 53%
    13:00 +21°C° 0 mm 2 mps 749 mmHg 51%
    14:00 +23°C° 0 mm 2 mps 749 mmHg 49%
    15:00 +21°C° 0 mm 2 mps 749 mmHg 55%
    16:00 +22°C° 0 mm 1 mps 748 mmHg 60%
    17:00 +22°C° 0 mm 1 mps 748 mmHg 66%
    18:00 +19°C° 0 mm 1 mps 748 mmHg 72%
    19:00 +16°C° 0 mm 1 mps 748 mmHg 78%
    20:00 +14°C° 0 mm 1 mps 748 mmHg 83%
    21:00 +14°C° 0 mm 1 mps 748 mmHg 85%
    22:00 +13°C° 0 mm 1 mps 748 mmHg 86%
    23:00 +13°C° 0 mm 1 mps 748 mmHg 88%

    24 August, Saturday

    Time Temperature Precipitation Wind Pressure Humidity
    00:00 +12°C° 0 mm 1 mps 748 mmHg 89%
    01:00 +12°C° 0 mm 1 mps 748 mmHg 90%
    02:00 +12°C° 0 mm 1 mps 748 mmHg 91%
    03:00 +12°C° 0 mm 1 mps 748 mmHg 91%
    04:00 +12°C° 0 mm 2 mps 748 mmHg 92%
    05:00 +10°C° 0 mm 2 mps 748 mmHg 93%
    06:00 +13°C° 0 mm 2 mps 748 mmHg 86%
    07:00 +15°C° 0 mm 2 mps 748 mmHg 79%
    08:00 +17°C° 0 mm 2 mps 748 mmHg 73%
    09:00 +19°C° 0 mm 3 mps 748 mmHg 68%
    10:00 +20°C° 0 mm 3 mps 747 mmHg 63%
    11:00 +22°C° 0 mm 3 mps 747 mmHg 58%
    12:00 +22°C° 0 mm 4 mps 747 mmHg 57%
    13:00 +22°C° 0 mm 4 mps 747 mmHg 56%
    14:00 +22°C° 0 mm 4 mps 746 mmHg 55%
    15:00 +22°C° 0 mm 3 mps 746 mmHg 60%
    16:00 +21°C° 0 mm 3 mps 746 mmHg 65%
    17:00 +21°C° 0 mm 2 mps 745 mmHg 70%
    18:00 +19°C° 0 mm 2 mps 745 mmHg 76%
    19:00 +17°C° 0 mm 2 mps 745 mmHg 81%
    20:00 +16°C° 0 mm 2 mps 745 mmHg 87%
    21:00 +15°C° 0 mm 2 mps 745 mmHg 89%
    22:00 +15°C° 0 mm 2 mps 745 mmHg 91%
    23:00 +14°C° 0 mm 2 mps 745 mmHg 93%

    25 August, Sunday

    Time Temperature Precipitation Wind Pressure Humidity
    00:00 +14°C° 0 mm 2 mps 745 mmHg 94%
    01:00 +14°C° 0 mm 2 mps 744 mmHg 95%
    02:00 +13°C° 0 mm 2 mps 744 mmHg 96%
    03:00 +13°C° 0 mm 2 mps 744 mmHg 97%
    04:00 +13°C° 0 mm 2 mps 744 mmHg 97%
    05:00 +13°C° 0 mm 2 mps 744 mmHg 98%
    06:00 +14°C° 0 mm 2 mps 745 mmHg 93%
    07:00 +16°C° 0 mm 2 mps 745 mmHg 88%
    08:00 +17°C° 0 mm 3 mps 745 mmHg 83%
    09:00 +18°C° 0 mm 3 mps 745 mmHg 74%
    10:00 +19°C° 0 mm 3 mps 746 mmHg 66%
    11:00 +20°C° 0 mm 3 mps 746 mmHg 57%
    12:00 +20°C° 0 mm 3 mps 746 mmHg 55%
    13:00 +21°C° 0 mm 3 mps 746 mmHg 54%
    14:00 +21°C° 0 mm 3 mps 746 mmHg 52%
    15:00 +20°C° 0 mm 3 mps 747 mmHg 57%
    16:00 +20°C° 0 mm 3 mps 747 mmHg 62%
    17:00 +19°C° 0 mm 2 mps 747 mmHg 67%
    18:00 +17°C° 0 mm 2 mps 747 mmHg 75%
    19:00 +15°C° 0 mm 2 mps 747 mmHg 83%
    20:00 +13°C° 0 mm 2 mps 748 mmHg 91%
    21:00 +13°C° 0 mm 1 mps 748 mmHg 93%
    22:00 +12°C° 0 mm 1 mps 748 mmHg 94%
    23:00 +11°C° 0 mm 1 mps 749 mmHg 96%

    26 August, Monday

    Time Temperature Precipitation Wind Pressure Humidity
    00:00 +11°C° 0 mm 1 mps 749 mmHg 96%
    01:00 +10°C° 0 mm 1 mps 749 mmHg 96%
    02:00 +10°C° 0 mm 1 mps 749 mmHg 95%
    03:00 +9°C° 0 mm 0 mps 749 mmHg 95%
    04:00 +8°C° 0 mm 0 mps 749 mmHg 96%
    05:00 +8°C° 0 mm 0 mps 749 mmHg 96%
    06:00 +10°C° 0 mm 0 mps 750 mmHg 90%
    07:00 +12°C° 0 mm 0 mps 750 mmHg 84%
    08:00 +14°C° 0 mm 0 mps 750 mmHg 78%
    09:00 +16°C° 0 mm 0 mps 750 mmHg 71%
    10:00 +19°C° 0 mm 1 mps 750 mmHg 64%
    11:00 +20°C° 0 mm 1 mps 750 mmHg 57%
    12:00 +21°C° 0 mm 1 mps 750 mmHg 54%
    13:00 +21°C° 0 mm 1 mps 749 mmHg 51%
    14:00 +22°C° 0 mm 1 mps 749 mmHg 48%
    15:00 +21°C° 0 mm 1 mps 748 mmHg 53%
    16:00 +21°C° 0 mm 1 mps 748 mmHg 59%
    17:00 +21°C° 0 mm 1 mps 748 mmHg 64%
    18:00 +19°C° 0 mm 1 mps 748 mmHg 71%
    19:00 +15°C° 0 mm 1 mps 747 mmHg 78%
    20:00 +13°C° 0 mm 2 mps 747 mmHg 85%
    21:00 +13°C° 0 mm 2 mps 747 mmHg 88%
    22:00 +12°C° 0 mm 2 mps 747 mmHg 90%
    23:00 +12°C° 0 mm 2 mps 747 mmHg 92%
    Show more